Flag for Liberia Weather past 2 weeks in Gbarnga, Liberia

Now
77 °F

Partly sunny.


Feels Like: 78 °F
Forecast: 57 / 93 °F
Wind: 6 mph from Northeast

Location: Roberts Field

Current Time: Jan 30, 2015 at 9:52:43 AM

Latest Report: Jan 30, 2015 at 9:30 AM


Visibility: 5 mi

Pressure: 29.95 "Hg

Humidity: 94%

Dew point: 75 °F

Location of GbarngaLocation

Historic Weather in Gbarnga — Graph

°F

Gbarnga temperature yesterday

Maximum temperature yesterday: 91 °F (at 1:00 PM)
Minimum temperature yesterday: 73 °F (at 5:30 AM)
Average temperature yesterday: 81 °F

Past Weeks' High & Low Weather Summary

 TemperatureHumidityPressure
High93 °F (Jan 28, 2:00 PM)100% (Jan 18, 3:30 AM)29.98 "Hg (Jan 18, 3:30 AM)
Low50 °F (Jan 19, 4:30 AM)44% (Jan 15, 2:00 PM)29.56 "Hg (Jan 28, 6:30 PM)
Average81 °F82%29.88 "Hg
* Reported Jan 15 9:00 AM — Jan 30 9:00 AM, Gbarnga, Weather by CustomWeather, © 2014

Note: Actual official high and low records may vary slightly from our data, if they occured in-between our weather recording intervals... More about our weather records

Advertising

Gbarnga weather history for previous 24 hours

 ConditionsComfort  
Time TempWeatherWind HumidityBarometerVisibility
9:00 AM
Jan 30
77 °FPartly sunny.No wind94%29.95 "Hg4 mi
8:30 AM75 °FPartly sunny.No wind94%29.92 "Hg4 mi
8:00 AM77 °FFog.No wind94%29.92 "Hg3 mi
7:30 AM75 °FFog.3 mph100%29.92 "Hg1 mi
7:00 AM75 °FFog.3 mph100%29.89 "Hg1 mi
6:30 AM75 °FFog.No wind100%29.89 "Hg1 mi
6:00 AM75 °FFog.No wind94%29.89 "Hg3 mi
2:30 AM77 °FPassing clouds.No wind94%29.86 "Hg4 mi
1:00 AM77 °FPassing clouds.No wind94%29.89 "Hg4 mi
12:30 AM77 °FPassing clouds.No wind94%29.89 "Hg4 mi
12:00 AM77 °FPassing clouds.No wind94%29.89 "Hg5 mi
11:30 PM
Jan 29
77 °FPassing clouds.No wind94%29.89 "Hg5 mi
10:30 PM77 °FPassing clouds.No wind94%29.89 "Hg5 mi
10:00 PM77 °FPassing clouds.No wind94%29.89 "Hg5 mi
9:30 PM77 °FPassing clouds.No wind94%29.89 "HgN/A
9:00 PM79 °FPassing clouds.No wind94%29.86 "HgN/A
8:30 PM79 °FPassing clouds.No wind94%29.86 "HgN/A
8:00 PM79 °FPassing clouds.No wind94%29.83 "HgN/A
7:30 PM81 °FPassing clouds.No wind84%29.83 "HgN/A
7:00 PM81 °FPassing clouds.No wind84%29.83 "HgN/A
6:00 PM84 °FPassing clouds.9 mph70%29.80 "HgN/A
5:30 PM88 °FPassing clouds.6 mph66%29.80 "HgN/A
5:00 PM88 °FPassing clouds.9 mph66%29.80 "HgN/A
4:30 PM90 °FScattered clouds.12 mph63%29.80 "HgN/A
4:00 PM90 °FScattered clouds.12 mph63%29.80 "HgN/A
3:30 PM90 °FPartly sunny.12 mph67%29.80 "HgN/A
2:30 PM88 °FPartly sunny.7 mph66%29.83 "HgN/A
2:00 PM91 °FPartly sunny.3 mph59%29.83 "HgN/A
1:30 PM91 °FPartly sunny.No wind52%29.83 "HgN/A
1:00 PM91 °FPartly sunny.No wind52%29.86 "HgN/A
12:30 PM90 °FPartly sunny.No wind63%29.89 "HgN/A
12:00 PM88 °FScattered clouds.No wind62%29.89 "HgN/A
11:30 AM86 °FScattered clouds.No wind70%29.92 "HgN/A
11:00 AM84 °FScattered clouds.6 mph70%29.92 "HgN/A
10:30 AM82 °FPassing clouds.7 mph79%29.92 "HgN/A
10:00 AM81 °FPassing clouds.5 mph84%29.92 "HgN/A
9:30 AM79 °FSunny.No wind89%29.92 "Hg6 mi
9:00 AM77 °FPassing clouds.No wind94%29.92 "Hg5 mi
Weather by CustomWeather, © 2014

See weather overviewHow to use our weather pages